This is the latest recevied weather packets stored in our database for station/object SV2RCS-13. If no packets are shown the sender has not sent any weather packets the latest 10 day(s).
| Time | Temp. | Humidity | Pressure | Rain* | Wind** | Luminosity | Snow |
|---|---|---|---|---|---|---|---|
| 1777569418 | 11.67° C | 46% | 1017.1 hPa | - | - | - | - |
| 1777568818 | 11.67° C | 47% | 1017.4 hPa | - | - | - | - |
| 1777568218 | 12.22° C | 48% | 1017 hPa | - | - | - | - |
| 1777567618 | 12.22° C | 49% | 1016.8 hPa | - | - | - | - |
| 1777567020 | 12.22° C | 48% | 1016.7 hPa | - | - | - | - |
| 1777566417 | 12.22° C | 49% | 1016.5 hPa | - | - | - | - |
| 1777565817 | 12.22° C | 50% | 1016.6 hPa | - | - | - | - |
| 1777565217 | 12.78° C | 50% | 1016.4 hPa | - | - | - | - |
| 1777564617 | 13.33° C | 49% | 1016.4 hPa | - | - | - | - |
| 1777564018 | 12.78° C | 50% | 1016 hPa | - | - | - | - |
| 1777563417 | 13.33° C | 49% | 1015.7 hPa | - | - | - | - |
| 1777562817 | 13.33° C | 49% | 1015.4 hPa | - | - | - | - |
| 1777562217 | 13.89° C | 49% | 1015.3 hPa | - | - | - | - |
| 1777561617 | 14.44° C | 50% | 1015.2 hPa | - | - | - | - |
| 1777561019 | 14.44° C | 51% | 1015.2 hPa | - | - | - | - |
| 1777560418 | 14.44° C | 51% | 1015 hPa | - | - | - | - |
| 1777559817 | 14.44° C | 51% | 1014.8 hPa | - | - | - | - |
| 1777559219 | 14.44° C | 51% | 1014.8 hPa | - | - | - | - |
| 1777558617 | 15° C | 51% | 1014.7 hPa | - | - | - | - |
| 1777558017 | 15° C | 53% | 1014.2 hPa | - | - | - | - |
| 1777557418 | 16.11° C | 54% | 1013.7 hPa | - | - | - | - |
| 1777556818 | 16.11° C | 53% | 1013.4 hPa | - | - | - | - |
| 1777556218 | 16.67° C | 54% | 1012.8 hPa | - | - | - | - |
| 1777555617 | 17.78° C | 51% | 1012.1 hPa | - | - | - | - |
| 1777555017 | 17.78° C | 50% | 1012.3 hPa | - | - | - | - |
* Rain since midnight (hover to see other rain measurements)
** Current wind speed in m/s (hover to see current wind gust speed)